EA8CHC Sevilla ES current weather conditions

sailwx.info

Wind from 250 at 9 knots gusting 19

Air temperature 24.4° C
Dewpoint 18.1° C

Last reported at 2014-Sep-19 14:52 UTC.
Time now 2014-Sep-19 15:53 UTC

Location: N 37°26' W 006°03'.
View on Google Maps.

See reports from other nearby stations

  
Tides and Currents Weather Stations Pressure Air Temp Water Temp Dewpoint Dewpoint Depression Visibility Wind Speed Wind Dir Waves Ship Positions
date/time (UTC)wind fromknots sea level pressurealtimeterstation pressurevisibilityair tempwater tempwave heightnotes
2014-Sep-19 14:52 250 9 gusting 19 24.4
2014-Sep-19 14:47 221 10 gusting 19 24.4
2014-Sep-19 14:42 203 8 gusting 19 24.4
2014-Sep-19 14:37 195 8 gusting 17 24.4
2014-Sep-19 14:32 221 8 gusting 17 23.9
2014-Sep-19 14:27 225 6 gusting 13 23.9
2014-Sep-19 14:22 200 6 gusting 13 23.3
2014-Sep-19 14:17 194 6 gusting 12 23.3
2014-Sep-19 14:12 227 5 gusting 13 22.8
2014-Sep-19 14:07 265 5 gusting 13 22.8
2014-Sep-19 14:02 249 6 gusting 13 23.3
2014-Sep-19 13:57 229 7 gusting 13 23.3
2014-Sep-19 13:52 217 7 gusting 13 23.3
2014-Sep-19 13:47 236 6 gusting 15 23.3
2014-Sep-19 13:42 211 7 gusting 15 23.9
2014-Sep-19 13:37 207 8 gusting 15 23.3
2014-Sep-19 13:32 200 7 gusting 16 23.3
2014-Sep-19 13:27 207 8 gusting 16 23.3
2014-Sep-19 13:22 193 9 gusting 16 23.3
2014-Sep-19 13:17 194 7 gusting 14 23.3
2014-Sep-19 13:12 199 6 gusting 12 22.8
2014-Sep-19 13:07 234 6 gusting 11 22.2
2014-Sep-19 13:02 237 6 gusting 13 22.2
2014-Sep-19 12:57 229 6 gusting 13 22.2
2014-Sep-19 12:52 232 6 gusting 13 22.2
2014-Sep-19 12:47 208 7 gusting 13 22.8
2014-Sep-19 12:42 182 6 gusting 13 22.8
2014-Sep-19 12:37 190 6 gusting 14 22.8
2014-Sep-19 12:32 204 8 gusting 17 22.8
2014-Sep-19 12:27 217 8 gusting 17 22.8
2014-Sep-19 12:22 227 7 gusting 14 22.8
2014-Sep-19 12:17 195 6 gusting 10 22.2
2014-Sep-19 12:12 219 6 gusting 10 21.7
2014-Sep-19 12:07 241 4 gusting 8 21.7
2014-Sep-19 12:02 214 3 gusting 8 21.7
2014-Sep-19 11:57 208 3 gusting 8 21.1
2014-Sep-19 11:52 188 2 gusting 6 21.1
2014-Sep-19 11:47 159 2 gusting 6 20.6
2014-Sep-19 11:42 232 3 gusting 6 20.6
2014-Sep-19 11:37 130 3 gusting 6 20.6
2014-Sep-19 11:32 159 3 gusting 7 20.6
2014-Sep-19 11:27 165 4 gusting 9 20.6
2014-Sep-19 11:22 178 5 gusting 9 20.0
2014-Sep-19 11:17 209 5 gusting 9 20.0
2014-Sep-19 11:12 200 5 gusting 9 20.0
2014-Sep-19 11:07 175 5 gusting 9 20.0
2014-Sep-19 11:02 246 6 gusting 9 20.0
2014-Sep-19 10:57 208 5 gusting 9 19.4
2014-Sep-19 10:52 249 3 gusting 6 19.4
2014-Sep-19 10:47 218 2 gusting 5 19.4
2014-Sep-19 10:42 295 2 gusting 6 19.4
2014-Sep-19 10:37 312 2 gusting 8 19.4
2014-Sep-19 10:32 293 4 gusting 11 19.4
2014-Sep-19 10:27 269 5 gusting 12 19.4
2014-Sep-19 10:22 261 6 gusting 12 19.4
2014-Sep-19 10:17 232 6 gusting 10 19.4
2014-Sep-19 10:12 244 4 gusting 6 20.0
2014-Sep-19 10:07 203 3 gusting 11 20.0
2014-Sep-19 10:02 160 4 gusting 11 20.6
2014-Sep-19 09:57 217 6 gusting 11 21.1
2014-Sep-19 09:52 183 6 gusting 14 21.7
2014-Sep-19 09:47 173 7 gusting 18 21.7
2014-Sep-19 09:42 194 9 gusting 18 22.2
2014-Sep-19 09:37 155 9 gusting 18 22.2
2014-Sep-19 09:32 191 9 gusting 16 22.2
2014-Sep-19 09:27 186 8 gusting 15 22.8
2014-Sep-19 09:22 180 7 gusting 15 22.8
2014-Sep-19 09:17 145 6 gusting 13 22.2
2014-Sep-19 09:12 190 6 gusting 12 22.2
2014-Sep-19 09:07 149 6 gusting 11 22.2
2014-Sep-19 09:02 163 5 gusting 10 22.2
2014-Sep-19 08:57 149 5 gusting 10 21.7
2014-Sep-19 08:52 160 6 gusting 10 21.7
2014-Sep-19 08:47 186 6 gusting 10 21.7
2014-Sep-19 08:42 153 6 gusting 10 21.1
2014-Sep-19 08:37 156 5 gusting 10 21.1
2014-Sep-19 08:32 206 5 gusting 9 21.1
2014-Sep-19 08:27 182 6 gusting 9 21.1
2014-Sep-19 08:22 163 6 gusting 10 21.1
2014-Sep-19 08:17 167 6 gusting 11 20.6
2014-Sep-19 08:12 163 6 gusting 11 20.6
2014-Sep-19 08:07 159 6 gusting 11 20.6
2014-Sep-19 08:02 155 6 gusting 10 20.6
2014-Sep-19 07:57 184 5 gusting 10 20.0
2014-Sep-19 07:52 173 5 gusting 10 20.0
2014-Sep-19 07:47 157 4 gusting 7 20.0
2014-Sep-19 07:42 146 4 gusting 7 20.0
2014-Sep-19 07:37 152 5 gusting 10 19.4
2014-Sep-19 07:32 155 5 gusting 10 19.4
2014-Sep-19 07:27 163 5 gusting 10 19.4
2014-Sep-19 07:22 167 5 gusting 7 19.4
2014-Sep-19 07:17 162 5 gusting 7 19.4
2014-Sep-19 07:12 156 4 gusting 7 19.4
2014-Sep-19 07:07 165 4 gusting 8 19.4
2014-Sep-19 07:02 159 4 gusting 8 19.4
2014-Sep-19 06:57 186 4 gusting 7 19.4
2014-Sep-19 06:52 165 4 gusting 8 19.4
2014-Sep-19 06:47 167 4 gusting 8 19.4
2014-Sep-19 06:42 164 5 gusting 9 19.4
2014-Sep-19 06:37 155 5 gusting 9 19.4
2014-Sep-19 06:32 159 5 gusting 8 19.4
2014-Sep-19 06:27 190 5 gusting 8 19.4
2014-Sep-19 06:22 166 4 gusting 7 19.4
2014-Sep-19 06:17 171 4 gusting 8 19.4
2014-Sep-19 06:12 173 4 gusting 8 19.4
2014-Sep-19 06:07 186 4 gusting 8 19.4
2014-Sep-19 06:02 159 5 gusting 7 19.4
2014-Sep-19 05:57 150 4 gusting 7 19.4
2014-Sep-19 05:52 152 4 gusting 7 19.4
2014-Sep-19 05:47 153 4 gusting 7 19.4
2014-Sep-19 05:42 154 4 gusting 7 19.4
2014-Sep-19 05:37 159 4 gusting 7 19.4
2014-Sep-19 05:32 150 3 gusting 6 19.4
2014-Sep-19 05:27 175 3 gusting 6 19.4
2014-Sep-19 05:22 174 3 gusting 6 19.4
2014-Sep-19 05:17 158 3 gusting 6 19.4
2014-Sep-19 05:12 173 3 gusting 5 19.4
2014-Sep-19 05:07 185 3 gusting 5 19.4
2014-Sep-19 05:02 255 2 gusting 5 19.4
2014-Sep-19 04:57 207 1 gusting 5 19.4
2014-Sep-19 04:52 155 1 gusting 4 19.4
2014-Sep-19 04:47 146 1 gusting 4 19.4
2014-Sep-19 04:42 159 1 gusting 4 19.4
2014-Sep-19 04:37 170 0 gusting 4 19.4
2014-Sep-19 04:32 161 0 gusting 5 19.4
2014-Sep-19 04:27 161 1 gusting 6 19.4
2014-Sep-19 04:22 161 2 gusting 6 19.4
2014-Sep-19 04:17 175 3 gusting 6 19.4
2014-Sep-19 04:12 176 3 gusting 6 19.4
2014-Sep-19 04:07 160 3 gusting 10 19.4
2014-Sep-19 04:02 187 4 gusting 10 19.4
2014-Sep-19 03:57 166 5 gusting 10 19.4
2014-Sep-19 03:52 172 5 gusting 8 19.4
2014-Sep-19 03:47 186 3 gusting 8 19.4
2014-Sep-19 03:42 159 3 gusting 6 19.4
2014-Sep-19 03:37 193 2 gusting 6 19.4
2014-Sep-19 03:32 197 2 gusting 6 19.4
2014-Sep-19 03:27 191 3 gusting 6 19.4
2014-Sep-19 03:22 163 3 gusting 6 19.4
2014-Sep-19 03:17 164 4 gusting 8 19.4
2014-Sep-19 03:12 150 4 gusting 8 20.0
2014-Sep-19 03:07 168 5 gusting 8 20.0
2014-Sep-19 03:02 148 5 gusting 9 19.4
2014-Sep-19 02:57 192 5 gusting 9 19.4
2014-Sep-19 02:52 219 5 gusting 8 19.4
2014-Sep-19 02:47 192 4 gusting 8 19.4
2014-Sep-19 02:42 181 5 gusting 8 19.4
2014-Sep-19 02:37 129 4 gusting 8 19.4
2014-Sep-19 02:32 171 3 gusting 8 19.4
2014-Sep-19 02:27 184 4 gusting 8 19.4
2014-Sep-19 02:22 174 4 gusting 7 19.4
2014-Sep-19 02:17 188 3 gusting 7 19.4
2014-Sep-19 02:12 211 3 gusting 6 19.4
2014-Sep-19 02:07 194 4 gusting 7 19.4
2014-Sep-19 02:02 189 4 gusting 8 19.4
2014-Sep-19 01:57 197 5 gusting 8 19.4
2014-Sep-19 01:52 179 5 gusting 8 19.4
2014-Sep-19 01:47 161 4 gusting 6 19.4
2014-Sep-19 01:42 157 4 gusting 6 19.4
2014-Sep-19 01:37 163 4 gusting 6 19.4
2014-Sep-19 01:32 157 3 gusting 6 19.4
2014-Sep-19 01:27 182 3 gusting 6 19.4
2014-Sep-19 01:22 169 3 gusting 6 19.4
2014-Sep-19 01:17 188 4 gusting 7 19.4
2014-Sep-19 01:12 185 4 gusting 7 20.0
2014-Sep-19 01:07 160 4 gusting 6 20.0
2014-Sep-19 01:02 171 3 gusting 6 20.0
2014-Sep-19 00:57 186 3 gusting 7 20.0
2014-Sep-19 00:52 186 3 gusting 7 20.0
2014-Sep-19 00:47 188 4 gusting 6 20.0
2014-Sep-19 00:42 174 4 gusting 6 20.0
2014-Sep-19 00:37 196 4 gusting 6 20.0
2014-Sep-19 00:32 162 3 gusting 7 20.0
2014-Sep-19 00:27 174 4 gusting 8 20.0
2014-Sep-19 00:22 180 5 gusting 9 20.0
2014-Sep-19 00:17 180 5 gusting 9 20.0
2014-Sep-19 00:12 171 4 gusting 7 20.0
2014-Sep-19 00:07 215 3 gusting 7 20.0
2014-Sep-19 00:02 195 4 gusting 7 19.4
2014-Sep-18 23:57 201 3 gusting 7 19.4
2014-Sep-18 23:52 232 3 gusting 6 19.4
2014-Sep-18 23:47 186 3 gusting 6 19.4
2014-Sep-18 23:42 213 3 gusting 6 19.4
2014-Sep-18 23:37 176 3 gusting 6 19.4
2014-Sep-18 23:32 173 3 gusting 10 18.9
2014-Sep-18 23:27 203 3 gusting 10 18.9
2014-Sep-18 23:22 236 4 gusting 10 19.4
2014-Sep-18 23:17 211 4 gusting 9 20.0
2014-Sep-18 23:12 226 3 gusting 6 20.0
2014-Sep-18 23:07 150 3 gusting 6 20.0
2014-Sep-18 23:02 175 3 gusting 6 20.0
2014-Sep-18 22:57 153 3 gusting 5 20.0
2014-Sep-18 22:52 165 2 gusting 5 20.0
2014-Sep-18 22:47 174 1 gusting 4 20.0
2014-Sep-18 22:42 151 1 gusting 6 20.0
2014-Sep-18 22:37 182 1 gusting 6 20.0
2014-Sep-18 22:32 146 1 gusting 6 20.0
2014-Sep-18 22:27 138 0 gusting 5 20.0
2014-Sep-18 22:22 136 1 gusting 6 20.0
2014-Sep-18 22:17 136 2 gusting 6 20.0
2014-Sep-18 22:12 136 3 gusting 6 20.0
2014-Sep-18 22:07 171 3 gusting 6 20.0
2014-Sep-18 22:02 169 3 gusting 6 20.0
2014-Sep-18 21:57 161 3 gusting 6 20.0
2014-Sep-18 21:52 175 2 gusting 5 20.0
2014-Sep-18 21:47 188 2 gusting 6 20.0
2014-Sep-18 21:42 178 3 gusting 6 20.0
2014-Sep-18 21:37 189 3 gusting 6 20.0
2014-Sep-18 21:32 184 3 gusting 6 20.6
2014-Sep-18 21:27 183 3 gusting 6 20.6
2014-Sep-18 21:22 173 2 gusting 5 20.6
2014-Sep-18 21:17 164 1 gusting 5 20.6
2014-Sep-18 21:12 170 0 gusting 4 20.6
2014-Sep-18 21:07 172 0 gusting 3 20.6
2014-Sep-18 21:02 167 20.6
2014-Sep-18 20:57 155 20.6
2014-Sep-18 20:52 157 0 gusting 4 20.6
2014-Sep-18 20:47 184 1 gusting 5 20.6
2014-Sep-18 20:42 192 1 gusting 5 20.6
2014-Sep-18 20:37 195 1 gusting 6 20.6
2014-Sep-18 20:32 154 1 gusting 6 20.6
2014-Sep-18 20:27 193 1 gusting 6 20.6
2014-Sep-18 20:22 207 1 gusting 5 20.6
2014-Sep-18 20:17 212 2 gusting 5 21.1
2014-Sep-18 20:12 244 2 gusting 6 21.1
2014-Sep-18 20:07 217 2 gusting 6 21.1
2014-Sep-18 20:02 219 3 gusting 7 21.1
2014-Sep-18 19:57 211 4 gusting 7 21.1
2014-Sep-18 19:52 211 4 gusting 7 21.1
2014-Sep-18 19:47 210 4 gusting 8 21.1
2014-Sep-18 19:42 207 4 gusting 10 21.7
2014-Sep-18 19:37 226 4 gusting 10 21.7
2014-Sep-18 19:32 227 4 gusting 10 21.7
2014-Sep-18 19:27 201 4 gusting 7 21.7
2014-Sep-18 19:22 221 4 gusting 7 21.7
2014-Sep-18 19:17 215 4 gusting 8 21.7
2014-Sep-18 19:12 209 4 gusting 8 21.7
2014-Sep-18 19:07 221 5 gusting 9 21.7
2014-Sep-18 19:02 209 5 gusting 9 22.2
2014-Sep-18 18:57 229 6 gusting 11 22.2
2014-Sep-18 18:52 259 5 gusting 11 22.2
2014-Sep-18 18:47 209 6 gusting 12 22.2
2014-Sep-18 18:42 214 6 gusting 12 22.2
2014-Sep-18 18:37 230 5 gusting 12 22.2
2014-Sep-18 18:32 217 6 gusting 12 22.8
2014-Sep-18 18:27 209 6 gusting 12 22.8
2014-Sep-18 18:22 184 6 gusting 12 22.8
2014-Sep-18 18:17 221 6 gusting 10 22.8
2014-Sep-18 18:12 222 6 gusting 11 22.8
2014-Sep-18 18:07 196 6 gusting 12 23.3
2014-Sep-18 18:02 218 6 gusting 12 23.3
2014-Sep-18 17:57 208 6 gusting 13 23.3
2014-Sep-18 17:52 214 7 gusting 13 23.3
2014-Sep-18 17:47 228 7 gusting 13 23.3
2014-Sep-18 17:42 209 6 gusting 12 23.3
2014-Sep-18 17:37 211 5 gusting 13 23.3
2014-Sep-18 17:32 197 6 gusting 13 23.3
2014-Sep-18 17:27 217 6 gusting 13 23.3
2014-Sep-18 17:22 192 6 gusting 14 23.3
2014-Sep-18 17:17 202 8 gusting 14 23.3
2014-Sep-18 17:12 204 8 gusting 14 23.3
2014-Sep-18 17:07 195 7 gusting 14 23.3
2014-Sep-18 17:02 215 8 gusting 14 23.3
2014-Sep-18 16:57 247 7 gusting 15 23.3
2014-Sep-18 16:52 217 8 gusting 16 23.3
2014-Sep-18 16:47 215 9 gusting 16 23.3
2014-Sep-18 16:42 227 10 gusting 15 23.3
2014-Sep-18 16:37 229 10 gusting 19 23.3
2014-Sep-18 16:32 207 10 gusting 19 23.3
2014-Sep-18 16:27 233 8 gusting 19 23.3
2014-Sep-18 16:22 234 7 gusting 17 23.3
2014-Sep-18 16:17 205 9 gusting 18 23.3
2014-Sep-18 16:12 206 10 gusting 18 23.9
2014-Sep-18 16:07 208 10 gusting 18 23.9
2014-Sep-18 16:02 214 10 gusting 18 23.9
2014-Sep-18 15:57 221 10 gusting 17 23.9
2014-Sep-18 15:52 227 9 gusting 17 23.9
2014-Sep-18 15:47 196 8 gusting 18 24.4
2014-Sep-18 15:42 225 8 gusting 19 24.4
2014-Sep-18 15:37 198 10 gusting 19 24.4
2014-Sep-18 15:32 238 10 gusting 19 24.4
2014-Sep-18 15:27 234 9 gusting 19 24.4
2014-Sep-18 15:22 234 8 gusting 15 24.4
2014-Sep-18 15:17 211 7 gusting 15 24.4
2014-Sep-18 15:12 252 8 gusting 17 24.4
2014-Sep-18 15:07 223 8 gusting 18 24.4
2014-Sep-18 15:02 239 10 gusting 18 24.4
2014-Sep-18 14:57 214 10 gusting 16 24.4
2014-Sep-18 14:52 225 8 gusting 14 25.0
2014-Sep-18 14:47 201 7 gusting 18 25.0
2014-Sep-18 14:42 209 8 gusting 18 25.0
2014-Sep-18 14:37 224 9 gusting 18 24.4
2014-Sep-18 14:32 199 9 gusting 17 24.4
2014-Sep-18 14:27 223 8 gusting 17 23.9
2014-Sep-18 14:22 216 9 gusting 17 23.9
2014-Sep-18 14:17 227 10 gusting 17 23.9
2014-Sep-18 14:12 233 10 gusting 17 24.4
2014-Sep-18 14:07 215 8 gusting 17 24.4
2014-Sep-18 14:02 220 8 gusting 17 24.4
2014-Sep-18 13:57 246 8 gusting 17 24.4
2014-Sep-18 13:52 253 6 gusting 13 24.4
2014-Sep-18 13:47 242 6 gusting 13 24.4
2014-Sep-18 13:42 235 6 gusting 13 23.9
2014-Sep-18 13:37 309 6 gusting 12 23.3
2014-Sep-18 13:32 241 6 gusting 13 23.3
2014-Sep-18 13:27 216 6 gusting 13 23.3
2014-Sep-18 13:22 282 6 gusting 13 22.8
2014-Sep-18 13:17 260 5 gusting 13 22.2
2014-Sep-18 13:12 217 4 gusting 10 21.7
2014-Sep-18 13:07 222 4 gusting 13 20.6
2014-Sep-18 13:02 192 6 gusting 13 20.6
2014-Sep-18 12:57 227 4 gusting 13 20.0
2014-Sep-18 12:52 279 1 gusting 7 19.4
2014-Sep-18 12:47 107 2 gusting 11 19.4
2014-Sep-18 12:42 104 5 gusting 11 20.0
2014-Sep-18 12:37 218 4 gusting 11 20.6
2014-Sep-18 12:32 283 1 gusting 3 20.6
2014-Sep-18 12:27 332 0 gusting 2 20.6
2014-Sep-18 12:22 329 20.6
2014-Sep-18 12:17 235 20.6
2014-Sep-18 12:12 235 20.6
2014-Sep-18 12:07 235 0 gusting 13 20.6
2014-Sep-18 12:02 235 4 gusting 13 20.6
2014-Sep-18 11:57 270 6 gusting 15 20.6
2014-Sep-18 11:52 263 6 gusting 22 20.0
2014-Sep-18 11:47 288 9 gusting 22 19.4
2014-Sep-18 11:42 288 6 gusting 22 20.6
2014-Sep-18 11:37 244 1 gusting 4 21.7
2014-Sep-18 11:32 062 0 gusting 5 21.1
2014-Sep-18 11:27 274 1 gusting 5 20.6
2014-Sep-18 11:22 244 2 gusting 6 20.6
2014-Sep-18 11:17 248 2 gusting 6 20.0
2014-Sep-18 11:12 267 2 gusting 6 19.4
2014-Sep-18 11:07 266 1 gusting 4 19.4
2014-Sep-18 11:02 239 0 gusting 4 19.4
2014-Sep-18 10:57 215 0 gusting 12 18.9
2014-Sep-18 10:52 271 3 gusting 12 19.4
2014-Sep-18 10:47 274 6 gusting 12 19.4
2014-Sep-18 10:42 280 5 gusting 13 19.4
2014-Sep-18 10:37 256 3 gusting 13 20.0
2014-Sep-18 10:32 218 3 gusting 13 20.0
2014-Sep-18 10:27 207 1 gusting 3 20.6
2014-Sep-18 10:22 213 0 gusting 3 20.6
2014-Sep-18 10:17 239 0 gusting 3 20.6
2014-Sep-18 10:12 216 20.6
2014-Sep-18 10:07 216 20.6
2014-Sep-18 10:02 216 20.6
2014-Sep-18 09:57 216 20.6
2014-Sep-18 09:52 215 20.6
2014-Sep-18 09:47 251 1 gusting 6 20.6
2014-Sep-18 09:42 252 3 gusting 7 21.1
2014-Sep-18 09:37 227 3 gusting 7 21.7
2014-Sep-18 09:32 196 4 gusting 7 21.7
2014-Sep-18 09:27 147 4 gusting 9 21.7
2014-Sep-18 09:22 163 5 gusting 9 21.7
2014-Sep-18 09:17 146 5 gusting 8 21.7
2014-Sep-18 09:12 134 4 gusting 6 21.7
2014-Sep-18 09:07 138 2 gusting 6 21.7
2014-Sep-18 09:02 148 1 gusting 6 21.7
2014-Sep-18 08:57 180 1 gusting 6 21.7
2014-Sep-18 08:52 195 1 gusting 6 21.7
2014-Sep-18 08:47 199 2 gusting 6 21.7
2014-Sep-18 08:42 184 3 gusting 6 21.7
2014-Sep-18 08:37 173 4 gusting 6 21.1
2014-Sep-18 08:32 195 3 gusting 6 21.1
2014-Sep-18 08:27 151 2 gusting 6 21.1
2014-Sep-18 08:22 159 1 gusting 6 21.1
2014-Sep-18 08:17 150 1 gusting 4 21.1
2014-Sep-18 08:12 110 1 gusting 4 21.1
2014-Sep-18 08:07 104 0 gusting 4 20.6
2014-Sep-18 08:02 048 20.6
2014-Sep-18 07:57 321 20.0
2014-Sep-18 07:52 321 20.0
2014-Sep-18 07:47 321 20.0
2014-Sep-18 07:42 321 20.0
2014-Sep-18 07:37 321 0 gusting 2 20.0
2014-Sep-18 07:32 321 0 gusting 0 20.0
2014-Sep-18 07:27 318 20.0
2014-Sep-18 07:22 306 20.0
2014-Sep-18 07:17 306 19.4
2014-Sep-18 07:12 306 0 gusting 2 19.4
2014-Sep-18 07:07 306 0 gusting 2 19.4
2014-Sep-18 07:02 296 20.0
2014-Sep-18 06:57 216 20.0
2014-Sep-18 06:52 215 20.0
2014-Sep-18 06:47 216 20.0
2014-Sep-18 06:42 216 20.0
2014-Sep-18 06:37 216 20.0
2014-Sep-18 06:32 216 20.0
2014-Sep-18 06:27 216 0 gusting 4 19.4
2014-Sep-18 06:22 216 1 gusting 4 19.4
2014-Sep-18 06:17 238 1 gusting 4 19.4
2014-Sep-18 06:12 244 0 gusting 0 19.4
2014-Sep-18 06:07 111 19.4
2014-Sep-18 06:02 111 19.4
2014-Sep-18 05:57 111 19.4
2014-Sep-18 05:52 111 19.4
2014-Sep-18 05:47 110 19.4
2014-Sep-18 05:42 111 19.4
2014-Sep-18 05:37 111 1 gusting 5 19.4
2014-Sep-18 05:32 111 2 gusting 5 19.4
2014-Sep-18 05:27 116 1 gusting 4 19.4
2014-Sep-18 05:22 153 0 gusting 6 19.4
2014-Sep-18 05:17 142 1 gusting 6 19.4
2014-Sep-18 05:12 143 2 gusting 6 20.0
2014-Sep-18 05:07 110 3 gusting 6 20.0
2014-Sep-18 05:02 136 3 gusting 6 20.0
2014-Sep-18 04:57 192 2 gusting 4 20.0
2014-Sep-18 04:52 155 1 gusting 4 20.0
2014-Sep-18 04:47 161 1 gusting 4 20.0
2014-Sep-18 04:42 149 1 gusting 3 20.0
2014-Sep-18 04:37 179 0 gusting 5 20.0
2014-Sep-18 04:32 186 1 gusting 5 20.0
2014-Sep-18 04:27 184 1 gusting 5 20.0
2014-Sep-18 04:22 184 0 gusting 3 20.0
2014-Sep-18 04:17 175 0 gusting 3 20.0
2014-Sep-18 04:12 175 0 gusting 3 20.0
2014-Sep-18 04:07 176 0 gusting 3 20.0
2014-Sep-18 04:02 208 0 gusting 4 20.0
2014-Sep-18 03:57 152 1 gusting 4 20.0
2014-Sep-18 03:52 148 0 gusting 4 20.0
2014-Sep-18 03:47 153 20.0
2014-Sep-18 03:42 184 20.0
2014-Sep-18 03:37 190 20.0
2014-Sep-18 03:32 190 1 gusting 4 19.4
2014-Sep-18 03:27 188 1 gusting 4 19.4
2014-Sep-18 03:22 248 0 gusting 3 19.4
2014-Sep-18 03:17 214 0 gusting 3 19.4
2014-Sep-18 03:12 161 0 gusting 3 20.0
2014-Sep-18 03:07 159 0 gusting 4 20.0
2014-Sep-18 03:02 162 20.0
2014-Sep-18 02:57 161 0 gusting 5 20.0
2014-Sep-18 02:52 161 2 gusting 5 20.0
2014-Sep-18 02:47 177 2 gusting 6 20.0
2014-Sep-18 02:42 171 2 gusting 6 20.0
2014-Sep-18 02:37 186 3 gusting 6 20.0
2014-Sep-18 02:32 186 3 gusting 6 20.0
2014-Sep-18 02:27 134 2 gusting 5 20.0
2014-Sep-18 02:22 129 1 gusting 5 20.0
2014-Sep-18 02:17 136 0 gusting 5 20.0
2014-Sep-18 02:12 153 20.0
2014-Sep-18 02:07 167 20.0
2014-Sep-18 02:02 165 20.0
2014-Sep-18 01:57 171 0 gusting 5 20.0
2014-Sep-18 01:52 175 0 gusting 5 20.0
2014-Sep-18 01:47 164 0 gusting 3 20.0
2014-Sep-18 01:42 148 0 gusting 3 20.0
2014-Sep-18 01:37 148 0 gusting 4 20.0
2014-Sep-18 01:32 148 1 gusting 4 20.0
2014-Sep-18 01:27 144 1 gusting 4 20.0
2014-Sep-18 01:22 151 0 gusting 3 20.0
2014-Sep-18 01:17 171 20.0
2014-Sep-18 01:12 159 20.0
2014-Sep-18 01:07 159 0 gusting 3 20.0
2014-Sep-18 01:02 159 0 gusting 3 20.0
2014-Sep-18 00:57 158 0 gusting 4 20.0
2014-Sep-18 00:52 158 1 gusting 6 20.0
2014-Sep-18 00:47 167 2 gusting 6 20.0
2014-Sep-18 00:42 175 2 gusting 6 20.6
2014-Sep-18 00:37 157 2 gusting 6 20.6
2014-Sep-18 00:32 136 2 gusting 5 20.6
2014-Sep-18 00:27 134 0 gusting 4 20.6
2014-Sep-18 00:22 131 0 gusting 4 20.6
2014-Sep-18 00:17 130 0 gusting 5 20.6
2014-Sep-18 00:12 129 1 gusting 5 20.6
2014-Sep-18 00:07 130 1 gusting 3 20.6
2014-Sep-18 00:02 121 0 gusting 3 20.6
2014-Sep-17 23:57 132 0 gusting 3 20.6
2014-Sep-17 23:52 154 20.6
2014-Sep-17 23:47 163 20.6
2014-Sep-17 23:42 164 20.6
2014-Sep-17 23:37 164 0 gusting 5 20.6
2014-Sep-17 23:32 163 1 gusting 5 20.6
2014-Sep-17 23:27 170 1 gusting 4 20.6
2014-Sep-17 23:22 168 0 gusting 4 20.6
2014-Sep-17 23:17 186 1 gusting 4 20.6
2014-Sep-17 23:12 187 1 gusting 4 20.6
2014-Sep-17 23:07 196 0 gusting 1 20.6
2014-Sep-17 23:02 140 20.6
2014-Sep-17 22:57 140 0 gusting 3 20.6
2014-Sep-17 22:52 140 0 gusting 3 20.6
2014-Sep-17 22:47 140 20.6
2014-Sep-17 22:42 142 20.6
2014-Sep-17 22:37 167 21.1
2014-Sep-17 22:32 167 21.1
2014-Sep-17 22:27 170 0 gusting 3 21.1
2014-Sep-17 22:22 170 0 gusting 4 21.1
2014-Sep-17 22:17 159 0 gusting 5 21.1
2014-Sep-17 22:12 166 0 gusting 5 21.1
2014-Sep-17 22:07 155 1 gusting 5 21.1
2014-Sep-17 22:02 167 1 gusting 5 21.1
2014-Sep-17 21:57 174 1 gusting 5 21.1
2014-Sep-17 21:52 177 1 gusting 6 21.1
2014-Sep-17 21:47 179 2 gusting 6 21.1
2014-Sep-17 21:42 168 2 gusting 5 21.1
2014-Sep-17 21:37 176 1 gusting 5 21.1
2014-Sep-17 21:32 202 1 gusting 5 21.1
2014-Sep-17 21:27 188 2 gusting 5 21.1
2014-Sep-17 21:22 196 2 gusting 5 21.1
2014-Sep-17 21:17 192 2 gusting 6 21.1
2014-Sep-17 21:12 180 2 gusting 6 21.1
2014-Sep-17 21:07 215 2 gusting 6 21.1
2014-Sep-17 21:02 209 2 gusting 6 21.1
2014-Sep-17 20:57 179 2 gusting 6 21.1
2014-Sep-17 20:52 228 3 gusting 6 21.1
2014-Sep-17 20:47 203 3 gusting 6 21.7
2014-Sep-17 20:42 218 3 gusting 6 21.7
2014-Sep-17 20:37 202 3 gusting 6 21.7
2014-Sep-17 20:32 224 3 gusting 6 21.7
2014-Sep-17 20:27 225 3 gusting 6 21.7
2014-Sep-17 20:22 208 3 gusting 6 21.7
2014-Sep-17 20:17 234 3 gusting 6 21.7
2014-Sep-17 20:12 229 3 gusting 6 21.7
2014-Sep-17 20:07 210 4 gusting 7 21.7
2014-Sep-17 20:02 204 4 gusting 8 21.7
2014-Sep-17 19:57 234 5 gusting 9 21.7
2014-Sep-17 19:52 214 5 gusting 10 21.7
2014-Sep-17 19:47 205 5 gusting 10 21.7
2014-Sep-17 19:42 190 6 gusting 10 21.7
2014-Sep-17 19:37 224 6 gusting 12 21.7
2014-Sep-17 19:32 208 6 gusting 14 22.2
2014-Sep-17 19:27 224 6 gusting 16 22.2
2014-Sep-17 19:22 198 7 gusting 16 22.2
2014-Sep-17 19:17 217 7 gusting 16 22.8
2014-Sep-17 19:12 207 7 gusting 15 22.8
2014-Sep-17 19:07 213 7 gusting 15 23.3
2014-Sep-17 19:02 188 7 gusting 15 23.3
2014-Sep-17 18:57 232 8 gusting 15 23.3
2014-Sep-17 18:52 223 8 gusting 17 23.3
2014-Sep-17 18:47 197 8 gusting 17 23.3
2014-Sep-17 18:42 238 7 gusting 17 23.3
2014-Sep-17 18:37 234 7 gusting 15 23.3
2014-Sep-17 18:32 198 8 gusting 14 23.9
2014-Sep-17 18:27 248 8 gusting 14 23.9
2014-Sep-17 18:22 209 7 gusting 14 23.9
2014-Sep-17 18:17 240 8 gusting 14 23.9
2014-Sep-17 18:12 213 8 gusting 16 23.9
2014-Sep-17 18:07 221 9 gusting 16 23.9
2014-Sep-17 18:02 223 9 gusting 19 24.4
2014-Sep-17 17:57 236 11 gusting 19 24.4
2014-Sep-17 17:52 225 10 gusting 19 24.4
2014-Sep-17 17:47 217 9 gusting 17 24.4
2014-Sep-17 17:42 204 9 gusting 17 24.4
2014-Sep-17 17:37 276 8 gusting 17 24.4
2014-Sep-17 17:32 196 9 gusting 17 25.0
2014-Sep-17 17:27 214 9 gusting 18 25.0
2014-Sep-17 17:22 207 9 gusting 20 25.0
2014-Sep-17 17:17 246 10 gusting 20 25.0
2014-Sep-17 17:12 212 10 gusting 20 25.0
2014-Sep-17 17:07 230 8 gusting 16 25.0
2014-Sep-17 17:02 191 8 gusting 16 25.0
2014-Sep-17 16:57 220 8 gusting 17 25.0
2014-Sep-17 16:52 223 8 gusting 17 25.6
2014-Sep-17 16:47 238 9 gusting 17 25.6
2014-Sep-17 16:42 190 8 gusting 15 25.6
2014-Sep-17 16:37 206 8 gusting 15 25.6
2014-Sep-17 16:32 187 8 gusting 15 25.6
2014-Sep-17 16:27 229 8 gusting 16 25.6
2014-Sep-17 16:22 206 9 gusting 16 25.6
2014-Sep-17 16:17 246 9 gusting 19 25.6
2014-Sep-17 16:12 221 10 gusting 20 25.6
2014-Sep-17 16:07 230 11 gusting 20 25.6
2014-Sep-17 16:02 167 12 gusting 20 25.6
2014-Sep-17 15:57 224 13 gusting 20 25.6
2014-Sep-17 15:52 228 12 gusting 20 26.1
2014-Sep-17 15:47 282 10 gusting 20 26.1
2014-Sep-17 15:42 231 9 gusting 17 26.1
2014-Sep-17 15:37 193 9 gusting 18 26.1
2014-Sep-17 15:32 200 9 gusting 18 26.1
2014-Sep-17 15:27 234 8 gusting 18 26.1
2014-Sep-17 15:22 300 8 gusting 16 26.1
2014-Sep-17 15:17 196 9 gusting 16 26.1
2014-Sep-17 15:12 229 8 gusting 17 26.1
2014-Sep-17 15:07 250 9 gusting 17 26.1
2014-Sep-17 15:02 255 11 gusting 17 25.6